KMDRIDGE9 Weather Reports


time (UTC)temp
F
wind
direction
speed
knots
gust
knots
rain 1hr
in
rain 24hr
in
rain mn
in
humidity
%
barometer
mb
20200803151641 86 200 2.6 7.8 0.00 0.00 0.00 34 1018.3
20200803150124 88 205 1.7 7.8 0.00 0.00 0.00 40 1018.4
20200803144649 88 218 3.5 10.4 0.00 0.00 0.00 43 1018.3
20200803143123 88 217 2.6 8.7 0.00 0.00 0.00 45 1018.2
20200803141629 88 222 1.7 7.8 0.00 0.00 0.00 42 1018.2
20200803140110 86 169 1.7 7.8 0.00 0.00 0.00 36 1018.3
20200803134723 85 0 2.6 8.7 0.00 0.00 0.00 25 1018.4
20200803133218 85 187 2.6 7.8 0.00 0.00 0.00 21 1018.4
20200803131637 85 213 2.6 8.7 0.00 0.00 0.00 24 1018.3
20200803130153 86 183 3.5 7.8 0.00 0.00 0.00 28 1018.2
20200803124707 85 233 1.7 7.8 0.00 0.00 0.00 20 1018.1
20200803123131 84 188 2.6 7.8 0.00 0.00 0.00 11 1018.2
20200803121637 82 183 1.7 10.4 0.00 0.00 0.00 3 1018.1
20200803120207 82 205 2.6 8.7 0.00 0.00 0.00 1018.0
20200803114654 82 0 1.7 7.0 0.00 0.00 0.00 1017.9
20200803113118 81 196 1.7 4.3 0.00 0.00 0.00 1017.6
20200803111821 80 224 1.7 6.1 0.00 0.00 0.00 1017.6
20200803110146 79 250 1.7 7.0 0.00 0.00 0.00 1017.5
20200803104734 78 205 1.7 5.2 0.00 0.00 0.00 1017.3
20200803103111 78 214 3.5 6.1 0.00 0.00 0.00 1017.0
20200803101720 78 202 1.7 5.2 0.00 0.00 0.00 1016.8
20200803100159 78 219 2.6 7.0 0.00 0.00 0.00 1016.7
20200803094724 78 253 2.6 8.7 0.00 0.00 0.00 1016.7
20200803093113 79 230 4.3 8.7 0.00 0.00 0.00 1016.7
20200803091647 79 259 2.6 7.8 0.00 0.00 0.00 1016.3
20200803090146 79 239 4.3 13.9 0.00 0.00 0.00 1016.3
20200803084715 79 254 6.1 10.4 0.00 0.00 0.00 1016.1
20200803083129 79 230 2.6 9.6 0.00 0.00 0.00 1015.9
20200803081639 79 228 3.5 9.6 0.00 0.00 0.00 1015.9
20200803080123 79 226 3.5 8.7 0.00 0.00 0.00 1015.7
20200803074732 79 211 2.6 7.8 0.00 0.00 0.00 1015.6
20200803073212 79 189 2.6 8.7 0.00 0.00 0.00 1015.6
20200803071650 79 211 3.5 9.6 0.00 0.00 0.00 1015.5
20200803070056 79 198 2.6 7.8 0.00 0.00 0.00 1015.6
20200803064644 79 191 2.6 9.6 0.00 0.00 0.00 1015.2
20200803063208 79 197 2.6 8.7 0.00 0.00 0.00 1015.1
20200803061702 79 229 1.7 6.1 0.00 0.00 0.00 1015.2
20200803060127 79 213 1.7 5.2 0.00 0.00 0.00 1015.4
20200803054617 80 237 0.9 4.3 0.00 0.00 0.00 1015.4
20200803053206 80 242 0.9 6.1 0.00 0.00 0.00 1015.1
20200803051609 80 205 2.6 5.2 0.00 0.00 0.00 1014.9
20200803050147 80 188 2.6 5.2 0.00 0.00 0.00 1014.7
20200803044630 80 196 2.6 5.2 0.00 0.00 0.00 1014.8
20200803043134 81 191 1.7 5.2 0.00 0.00 0.00 1014.8
20200803041600 81 199 1.7 4.3 0.00 0.00 0.00 1014.7
20200803040158 82 214 1.7 4.3 0.00 0.00 0.00 1014.6
20200803034620 82 200 0.9 4.3 0.00 0.00 0.00 1014.6
20200803033201 82 272 2.6 8.7 0.00 0.00 0.00 3 1014.6
20200803031704 82 290 1.7 6.1 0.00 0.00 0.00 1014.7
20200803030138 83 207 1.7 7.8 0.00 0.00 0.00 1014.6
20200803024632 83 205 1.7 5.2 0.00 0.00 0.00 1014.6
20200803023136 83 210 2.6 7.0 0.00 0.00 0.00 1014.6
20200803021629 83 250 3.5 7.0 0.00 0.00 0.00 1014.6
20200803020154 83 221 1.7 7.0 0.00 0.00 0.00 1014.4
20200803014704 84 243 0.9 4.3 0.00 0.00 0.00 2 1013.9
20200803013240 84 236 2.6 4.3 0.00 0.00 0.00 7 1013.7
20200803011642 84 197 0.0 2.6 0.00 0.00 0.00 25 1013.6
20200803010201 85 0 0.0 1.7 0.00 0.00 0.00 34 1013.2
20200803004701 85 0 0.9 3.5 0.00 0.00 0.00 42 1013.1
20200803003141 86 201 1.7 5.2 0.00 0.00 0.00 46 1013.2
20200803001659 86 213 1.7 6.1 0.00 0.00 0.00 47 1013.1
20200803000152 87 188 2.6 7.0 0.00 0.00 0.00 49 1013.0
20200802234659 87 184 2.6 9.6 0.00 0.00 0.00 50 1012.8
20200802233139 88 146 5.2 13.9 0.00 0.00 0.00 38 1012.7
20200802231713 89 188 7.0 15.6 0.00 0.00 0.00 25 1012.6
20200802230156 90 173 4.3 11.3 0.00 0.00 0.00 27 1012.3
20200802224639 90 173 3.5 10.4 0.00 0.00 0.00 30 1012.2
20200802223302 90 182 3.5 13.0 0.00 0.00 0.00 33 1012.3
20200802221634 90 209 3.5 10.4 0.00 0.00 0.00 36 1012.2
20200802220131 91 159 4.3 14.8 0.00 0.00 0.00 42 1012.2
20200802214719 92 181 4.3 13.0 0.00 0.00 0.00 47 1012.2
20200802213216 93 193 6.1 15.6 0.00 0.00 0.00 47 1012.1
20200802211707 93 180 6.1 17.4 0.00 0.00 0.00 47 1012.0
20200802210148 93 207 6.1 13.0 0.00 0.00 0.00 49 1012.1
20200802204622 94 192 7.0 13.0 0.00 0.00 0.00 49 1012.1
20200802203210 95 186 6.1 17.4 0.00 0.00 0.00 49 1012.2
20200802201647 94 201 4.3 14.8 0.00 0.00 0.00 50 1012.2
20200802200135 95 171 6.1 13.0 0.00 0.00 0.00 50 1012.3
20200802194617 95 184 2.6 12.2 0.00 0.00 0.00 50 1012.4
20200802193208 95 209 4.3 11.3 0.00 0.00 0.00 51 1012.5
20200802191723 94 223 5.2 13.0 0.00 0.00 0.00 50 1012.6
20200802190107 94 182 4.3 13.9 0.00 0.00 0.00 50 1012.7
20200802184732 95 175 5.2 13.0 0.00 0.00 0.00 50 1012.8
20200802183139 94 195 5.2 17.4 0.00 0.00 0.00 50 1012.8
20200802181631 94 197 7.8 14.8 0.00 0.00 0.00 50 1012.8
20200802180059 94 220 6.1 15.6 0.00 0.00 0.00 50 1012.9
20200802174648 94 259 5.2 12.2 0.00 0.00 0.00 50 1012.9
20200802173142 94 192 6.1 16.5 0.00 0.00 0.00 50 1012.9
20200802171717 93 167 4.3 14.8 0.00 0.00 0.00 49 1012.9
20200802170142 93 211 2.6 10.4 0.00 0.00 0.00 43 1013.1
20200802164656 91 187 6.1 14.8 0.00 0.00 0.00 37 1013.1
20200802163129 89 147 0.9 3.5 0.00 0.00 0.00 3 1013.1
20200802161640 91 138 1.7 6.1 0.00 0.00 0.00 24 1013.3
20200802160215 90 138 2.6 7.8 0.00 0.00 0.00 15 1013.4
20200802154642 89 156 4.3 8.7 0.00 0.00 0.00 20 1013.4
20200802153147 87 193 3.5 10.4 0.00 0.00 0.00 1 1013.6